{"data":{"norad_id":64569,"epoch":"2026-05-25T03:34:58.211040Z","epoch_age_seconds":59161,"freshness":"FRESH","line1":"1 64569U 25135AT  26145.14928485  .00001479  00000+0  14572-3 0  9997","line2":"2 64569  97.7728 259.6927 0003125  82.6767 277.4808 14.93554390 50441","mean_motion":14.9355439,"eccentricity":0.0003125,"inclination_deg":97.7728,"raan_deg":259.6927,"arg_perigee_deg":82.6767,"mean_anomaly_deg":277.4808,"bstar":0.00014572,"rev_number":5044,"period_min":96.414299314537,"perigee_km":584.68684513267,"apogee_km":589.03997038752,"semimajor_km":6965.0004077601,"source":"CELESTRAK","updated_at":"2026-05-25T13:38:04.620168Z"}}